Wind_Speed
21 20 19 20 22 20 18 18 18 16 15 14 13 12 11 9 8 7 7 7 7 7 6 6 6 7 7 7 7 8 9 10 10 11 11 11 10 10 9 9 9 8 8 8 8 7 7 7 7
21 21 20 21 21 18 19 19 19 17 16 15 14 13 12 11 10 8 7 7 8 7 7 7 7 7 7 8 8 9 9 9 9 10 10 11 10 9 9 9 8 8 8 8 7 7 7 7 7
20 20 20 22 20 19 20 20 19 18 18 17 16 15 13 12 10 9 8 8 8 7 7 7 7 6 7 9 9 9 9 9 9 9 10 10 10 10 10 9 8 8 8 7 7 7 7 7 6
19 20 21 20 19 19 20 20 20 20 19 18 18 16 14 13 11 10 9 9 9 7 6 6 6 6 8 8 9 9 9 10 9 10 11 10 10 10 10 9 8 8 8 7 7 7 6 6 6
17 19 20 18 18 19 19 19 20 20 20 19 19 17 16 14 12 10 10 9 8 8 6 6 7 7 6 7 8 9 8 9 9 10 10 10 9 9 9 8 8 7 6 6 6 6 6 6 6
16 18 17 16 17 18 19 19 20 20 19 19 19 18 17 15 14 12 11 10 9 7 6 6 6 5 6 7 7 8 8 8 9 10 9 9 9 9 9 8 8 7 6 6 6 6 5 5 5
15 16 16 16 17 18 18 19 20 20 20 19 19 18 17 16 15 13 12 11 9 8 7 6 5 5 6 6 7 8 8 8 8 8 8 9 9 9 9 8 7 7 7 6 6 6 5 5 4
12 15 14 14 15 16 17 18 19 20 20 19 19 18 17 16 15 14 13 11 10 9 8 7 6 5 4 5 6 7 7 7 7 8 8 8 8 9 8 8 7 6 6 6 6 5 5 4 4
11 13 11 12 13 14 15 17 18 19 19 20 19 19 18 17 16 15 13 12 11 10 9 8 7 6 5 5 5 6 7 7 7 7 7 7 7 7 8 7 7 6 6 5 5 4 4 4 3
9 10 10 10 11 12 14 15 17 18 19 19 19 19 18 17 16 15 14 13 11 10 9 8 7 6 6 5 5 5 6 6 6 7 7 7 6 6 7 7 7 6 6 5 4 4 4 3 3
7 8 8 8 10 10 12 13 15 16 17 18 18 18 18 18 17 16 15 14 12 11 10 9 8 7 6 5 5 5 6 5 6 6 7 7 6 6 7 6 6 6 6 5 4 4 3 3 3
4 4 5 6 8 8 9 11 13 14 15 16 16 16 17 17 17 16 15 14 13 12 10 10 9 8 7 6 5 6 5 5 5 6 6 6 5 6 6 6 6 6 6 5 4 3 3 3 3
3 2 3 4 5 6 7 8 10 11 13 14 15 16 16 16 16 15 15 14 13 13 11 10 9 8 7 6 6 5 5 4 5 5 5 4 4 5 6 6 5 6 6 5 4 4 3 3 3
4 2 1 1 2 3 5 6 7 9 10 12 13 14 15 15 14 14 14 13 13 12 12 11 10 9 8 7 7 5 5 4 4 4 3 3 3 4 4 5 5 5 6 5 5 4 4 4 3
6 4 3 2 0 1 2 4 4 6 8 9 11 12 13 14 14 13 13 13 12 12 11 11 10 10 9 8 7 6 5 5 4 4 3 3 3 3 3 4 5 5 5 5 5 5 5 5 4
7 5 4 4 3 1 0 2 2 3 5 6 8 9 10 11 12 12 12 12 11 11 11 10 10 9 9 9 8 6 5 5 4 4 3 2 2 2 2 4 5 5 5 4 4 4 4 5 5
9 7 7 7 6 4 2 1 2 1 2 4 5 6 8 9 10 10 10 10 10 10 10 10 9 9 9 9 8 7 6 5 4 3 2 2 1 1 1 2 3 4 4 4 3 4 4 4 4
13 11 10 10 10 8 7 5 5 4 3 2 3 4 5 7 8 8 8 9 9 9 9 8 8 8 8 8 8 7 7 6 5 4 2 2 1 1 0 1 3 3 4 4 4 3 3 4 5
16 15 13 13 14 12 11 10 9 7 5 4 3 3 4 5 6 6 6 7 7 7 7 7 7 7 7 7 6 6 6 6 5 4 3 2 2 2 1 0 2 3 3 4 4 4 4 5 6
19 17 15 16 17 15 15 14 12 11 9 8 6 5 5 5 6 7 6 5 5 5 6 5 5 5 6 6 5 5 5 5 4 4 3 3 2 2 2 1 0 1 2 2 3 4 4 5 6
21 20 19 19 19 18 16 15 14 12 11 10 9 9 8 8 8 8 8 7 6 5 6 5 5 5 5 6 5 4 5 5 4 3 3 4 3 3 3 2 1 1 2 2 3 4 5 5 6
22 21 22 22 20 19 18 16 16 14 13 12 11 11 10 10 9 9 9 8 7 7 6 6 6 6 5 5 5 5 5 5 4 4 3 3 4 4 3 3 3 3 4 4 4 4 4 5 6
24 24 24 23 22 21 20 19 18 17 15 13 13 12 12 12 11 10 10 10 9 9 8 8 7 6 6 6 5 5 5 5 5 5 4 4 5 5 5 4 4 5 5 5 5 5 6 6 7
26 25 25 25 24 25 23 22 20 19 17 15 15 15 14 14 12 11 11 11 11 11 11 9 9 8 8 7 6 6 6 6 6 6 6 6 6 6 6 6 6 6 6 6 6 7 7 7 8
27 26 25 25 25 25 25 25 23 22 20 18 17 16 16 15 14 14 14 14 13 13 13 12 11 11 10 9 8 8 7 7 7 7 7 8 9 9 8 8 7 8 8 7 7 8 8 8 9
28 28 27 26 25 25 26 27 25 22 22 21 20 19 19 18 18 17 17 17 16 15 14 14 13 13 12 11 11 10 10 10 9 10 10 11 11 10 9 9 9 9 9 9 9 9 10 10 10
29 29 29 29 28 28 28 28 25 24 24 23 23 21 21 21 20 20 20 19 19 18 17 17 16 16 15 14 14 13 12 12 11 12 12 13 13 12 12 11 11 11 11 11 11 11 11 12 12
31 30 30 30 29 29 29 28 26 25 24 24 23 23 23 23 22 22 21 21 22 21 20 20 19 19 18 18 16 16 15 14 14 14 15 14 13 13 14 13 12 12 13 12 12 12 13 13 13
32 32 32 32 31 30 29 28 27 27 26 25 25 24 24 23 23 23 22 22 22 22 22 22 22 21 20 20 20 19 18 17 16 16 16 16 16 15 16 15 14 14 14 14 13 13 14 14 14
32 32 32 32 33 33 31 30 29 29 27 27 26 25 25 25 25 24 23 23 23 24 24 25 24 23 23 23 22 21 21 20 19 18 18 17 17 17 18 18 17 16 16 16 15 15 16 15 15
Wind_Direction
73 74 74 73 69 65 68 69 69 70 70 69 70 72 76 82 90 99 103 105 108 112 121 133 140 134 136 143 140 140 142 139 139 136 134 135 134 133 132 134 132 130 129 130 132 130 126 123 123
74 73 74 74 72 68 67 69 68 69 69 69 68 70 71 74 80 90 98 104 105 110 119 131 131 137 140 148 145 143 143 145 142 143 141 138 139 138 134 136 134 131 132 132 132 133 129 126 123
75 73 73 72 70 69 68 67 66 67 66 67 66 67 69 71 74 80 90 97 96 99 109 120 126 134 138 146 146 146 144 148 147 149 147 144 143 140 139 142 141 137 135 133 132 130 129 131 128
76 76 73 71 69 68 67 65 65 65 64 64 64 65 66 68 69 73 81 88 91 95 102 114 124 133 137 143 149 148 147 145 146 151 148 146 148 146 144 146 145 142 140 137 137 134 132 133 133
79 75 70 68 69 68 66 64 62 63 62 62 62 63 64 65 66 72 77 82 86 88 94 108 120 131 142 146 148 151 151 148 150 154 154 152 153 149 147 147 147 146 143 144 144 145 138 138 135
81 75 75 72 69 68 66 64 62 61 62 62 61 61 62 63 65 68 72 76 81 85 95 103 107 124 138 140 138 143 153 152 154 155 157 159 158 156 150 149 149 152 154 153 154 151 148 144 141
82 81 77 73 70 68 66 64 62 60 61 60 61 59 59 60 63 65 67 71 75 82 91 96 104 112 133 140 143 140 146 153 157 158 158 161 161 158 154 153 154 157 161 163 162 159 158 156 152
85 82 73 72 71 68 66 65 64 63 62 61 60 59 58 59 61 63 65 67 71 77 87 92 103 119 125 132 140 143 147 152 153 157 156 160 160 161 161 161 160 161 170 171 169 170 172 169 166
87 82 78 76 73 70 67 65 64 65 63 61 59 58 57 58 58 60 61 63 69 75 82 89 93 103 113 121 134 143 151 154 156 158 158 160 162 164 168 168 165 165 166 170 175 173 170 167 165
91 88 85 77 74 73 69 66 64 62 62 60 58 58 57 57 57 58 60 61 67 73 78 84 85 93 106 112 125 140 150 154 159 158 157 160 162 165 167 169 168 171 173 171 171 170 170 173 171
99 95 87 75 72 72 71 68 66 63 61 59 56 56 57 56 57 57 60 62 66 70 74 76 79 87 99 104 111 125 135 149 156 158 154 154 162 168 170 173 175 178 178 175 174 177 176 175 185
114 99 88 78 73 70 70 68 66 65 62 60 56 54 56 56 56 56 59 62 65 67 69 71 73 80 89 99 103 113 127 140 148 154 153 158 163 166 171 171 180 183 182 184 188 192 193 197 203
160 136 95 79 74 70 68 68 67 67 63 60 56 53 54 55 55 55 57 59 62 64 66 68 71 76 81 87 92 104 120 127 140 142 148 157 166 169 175 180 182 188 193 195 195 207 217 219 216
206 213 192 99 70 75 67 66 68 67 63 59 56 52 50 51 51 51 53 56 58 60 62 65 70 73 76 80 86 95 112 125 130 137 145 158 163 169 181 186 186 193 203 210 215 221 233 233 227
222 228 237 244 240 66 56 53 58 64 61 56 55 53 48 46 47 48 48 50 53 56 58 61 65 68 72 76 79 84 93 112 127 135 135 136 151 166 180 188 192 196 205 214 219 226 238 241 242
232 236 237 247 240 254 45 48 39 54 55 53 50 48 45 42 43 45 43 43 46 50 54 57 61 64 66 67 70 75 81 88 107 124 129 122 121 142 170 184 192 198 206 213 221 229 242 251 249
236 236 237 245 245 249 253 250 297 348 26 42 43 41 40 36 34 36 37 38 40 43 47 52 57 58 60 58 61 67 71 75 86 98 105 94 90 106 139 185 197 206 210 218 230 237 246 253 250
237 238 243 247 249 248 252 259 273 283 293 332 9 20 22 23 21 23 28 32 34 35 39 46 53 53 53 52 56 61 64 68 70 73 72 63 59 63 79 201 208 219 231 236 238 246 250 257 258
236 237 242 247 252 250 251 256 264 271 276 283 301 324 340 348 355 3 8 14 21 26 28 33 41 44 43 45 48 53 55 54 55 58 62 58 53 50 44 316 219 221 234 243 251 258 258 265 264
238 240 244 248 252 254 257 258 262 266 268 273 277 279 294 312 324 329 335 343 356 4 6 7 17 21 23 24 28 32 33 36 38 41 41 37 33 26 15 9 211 216 235 251 258 264 274 273 270
241 244 244 249 254 258 258 260 261 260 263 266 269 272 276 288 301 309 308 309 319 332 342 344 346 351 360 2 359 6 17 14 14 21 18 19 16 1 347 337 318 271 282 288 274 268 268 277 275
244 246 248 251 254 256 257 254 256 259 260 262 264 266 268 277 287 296 298 296 298 307 317 321 318 324 331 344 349 351 351 354 354 351 352 354 356 351 334 316 302 284 287 298 297 285 281 279 278
244 247 250 252 252 252 257 255 255 258 259 262 262 262 263 269 275 282 292 291 290 295 300 302 302 308 317 328 335 341 337 331 332 328 320 318 319 321 320 312 308 299 288 295 306 305 293 288 285
246 248 252 254 254 254 255 255 255 257 259 258 259 262 262 265 269 276 281 283 284 287 288 287 293 300 304 306 312 318 322 319 313 311 304 302 299 297 301 301 302 302 298 295 295 303 300 295 295
246 248 252 255 256 258 258 256 253 255 257 256 256 259 260 263 266 270 271 275 279 283 283 286 289 292 294 290 292 297 301 300 299 296 297 298 294 289 288 287 291 294 294 295 293 297 300 297 295
247 246 247 250 254 259 261 258 256 256 256 257 256 256 257 259 263 266 266 268 271 276 277 279 280 283 287 282 281 283 287 287 285 285 288 291 289 285 283 283 285 288 291 289 291 292 294 293 291
247 247 247 250 252 254 255 259 260 256 256 258 258 258 257 257 259 263 265 266 265 268 271 273 276 277 279 278 277 278 279 280 280 283 285 285 285 285 283 281 282 283 285 285 283 287 288 289 288
248 248 247 246 249 253 257 260 258 257 259 259 259 257 257 257 257 260 263 263 263 263 266 268 270 271 273 272 273 275 275 277 276 280 283 285 282 279 281 282 280 280 281 282 283 284 287 287 287
250 249 249 249 248 251 256 256 258 260 260 259 258 257 258 258 257 256 258 261 260 259 260 263 264 266 268 270 269 273 275 276 274 278 284 285 284 281 279 280 277 277 278 281 281 282 284 282 283
251 250 248 249 251 252 253 255 258 261 261 259 257 257 256 256 255 255 256 258 257 256 258 261 263 265 268 269 271 274 275 276 276 278 282 283 284 283 278 277 274 275 276 276 276 279 282 282 283
Height
5892 5891 5891 5890 5890 5891 5889 5888 5886 5884 5883 5881 5880 5879 5878 5878 5879 5880 5877 5875 5876 5876 5875 5875 5876 5877 5877 5878 5878 5879 5880 5881 5882 5883 5884 5885 5886 5887 5888 5889 5890 5891 5891 5892 5892 5893 5894 5895 5895
5895 5894 5894 5893 5894 5895 5892 5890 5888 5886 5885 5883 5881 5880 5879 5878 5878 5878 5877 5877 5877 5876 5876 5876 5877 5877 5878 5878 5879 5880 5881 5881 5882 5883 5884 5885 5886 5887 5889 5890 5891 5892 5892 5893 5893 5894 5895 5895 5896
5898 5897 5897 5897 5897 5896 5895 5892 5890 5888 5886 5884 5883 5882 5881 5880 5879 5878 5878 5877 5877 5877 5877 5877 5877 5878 5878 5879 5880 5881 5881 5882 5883 5884 5885 5886 5887 5888 5889 5890 5892 5892 5893 5893 5894 5895 5895 5896 5897
5901 5901 5900 5901 5900 5898 5896 5894 5892 5890 5888 5886 5885 5883 5882 5881 5880 5880 5879 5879 5879 5879 5879 5878 5878 5879 5879 5879 5881 5882 5882 5883 5884 5885 5886 5887 5888 5889 5890 5891 5892 5893 5894 5894 5895 5895 5896 5897 5897
5903 5903 5904 5905 5902 5901 5898 5896 5894 5892 5890 5888 5887 5886 5884 5883 5882 5881 5881 5880 5880 5880 5880 5879 5880 5880 5880 5880 5881 5882 5883 5884 5885 5886 5887 5888 5889 5890 5891 5892 5893 5894 5894 5895 5895 5896 5897 5897 5898
5906 5906 5909 5907 5905 5903 5901 5899 5897 5895 5893 5891 5889 5888 5887 5885 5884 5883 5882 5882 5881 5881 5881 5881 5881 5881 5881 5881 5882 5882 5883 5884 5885 5887 5888 5888 5889 5890 5891 5892 5893 5894 5895 5895 5896 5897 5897 5898 5898
5909 5910 5910 5909 5907 5906 5904 5901 5899 5898 5895 5894 5892 5891 5889 5887 5886 5885 5884 5883 5883 5882 5882 5882 5882 5882 5882 5882 5882 5883 5884 5885 5886 5887 5888 5889 5889 5890 5891 5892 5893 5894 5895 5896 5896 5897 5897 5898 5899
5911 5912 5913 5912 5910 5909 5907 5904 5902 5900 5898 5897 5895 5893 5892 5890 5888 5887 5886 5885 5884 5884 5884 5883 5883 5883 5883 5883 5883 5884 5884 5885 5886 5887 5888 5889 5889 5890 5891 5892 5893 5894 5895 5896 5896 5897 5898 5898 5899
5913 5915 5915 5914 5912 5911 5909 5907 5905 5903 5901 5899 5897 5896 5895 5892 5891 5889 5888 5887 5886 5886 5885 5885 5885 5884 5884 5884 5884 5884 5885 5886 5887 5887 5888 5889 5890 5890 5891 5892 5893 5894 5895 5896 5896 5897 5898 5898 5899
5915 5917 5916 5915 5914 5912 5910 5909 5907 5906 5904 5902 5900 5899 5897 5895 5893 5892 5891 5889 5888 5888 5887 5887 5886 5886 5885 5885 5885 5885 5886 5886 5887 5888 5888 5889 5890 5891 5891 5893 5893 5894 5895 5896 5896 5897 5897 5898 5898
5916 5917 5917 5916 5915 5914 5912 5911 5910 5908 5906 5905 5903 5901 5899 5898 5896 5894 5893 5892 5891 5890 5889 5889 5888 5887 5887 5887 5886 5886 5887 5887 5888 5888 5889 5889 5890 5891 5891 5892 5893 5894 5895 5895 5896 5897 5897 5898 5898
5917 5917 5917 5917 5916 5915 5914 5913 5912 5910 5909 5907 5905 5904 5902 5900 5899 5897 5896 5895 5893 5892 5891 5890 5890 5889 5888 5888 5887 5887 5888 5888 5889 5889 5890 5890 5890 5891 5891 5892 5893 5894 5894 5895 5896 5896 5897 5897 5898
5918 5918 5918 5917 5917 5916 5915 5914 5913 5912 5911 5909 5908 5906 5904 5903 5901 5900 5898 5897 5896 5895 5893 5892 5891 5891 5890 5889 5889 5889 5889 5889 5889 5890 5890 5890 5891 5891 5891 5892 5893 5893 5894 5895 5896 5897 5897 5897 5898
5917 5918 5918 5918 5917 5917 5917 5916 5915 5914 5913 5911 5910 5908 5907 5905 5903 5902 5901 5899 5898 5897 5896 5895 5894 5893 5892 5891 5891 5890 5890 5890 5890 5891 5891 5891 5891 5891 5891 5892 5892 5893 5894 5895 5895 5896 5896 5897 5897
5917 5918 5918 5918 5917 5917 5918 5917 5916 5915 5914 5913 5911 5910 5909 5907 5906 5904 5903 5902 5900 5899 5898 5897 5896 5894 5893 5893 5892 5891 5891 5891 5891 5891 5891 5891 5891 5891 5891 5891 5892 5892 5893 5894 5894 5895 5895 5896 5896
5916 5918 5919 5918 5917 5917 5919 5919 5917 5916 5915 5914 5913 5912 5911 5909 5908 5906 5905 5904 5902 5901 5900 5898 5897 5896 5895 5894 5893 5893 5892 5892 5892 5892 5892 5891 5891 5891 5891 5891 5891 5892 5892 5893 5894 5894 5894 5894 5895
5916 5917 5918 5918 5917 5917 5918 5919 5918 5916 5916 5915 5914 5913 5912 5911 5910 5908 5907 5905 5904 5903 5901 5900 5899 5898 5897 5896 5895 5894 5894 5893 5893 5892 5892 5892 5891 5891 5891 5891 5891 5891 5892 5892 5892 5893 5893 5893 5894
5915 5916 5916 5917 5916 5916 5916 5917 5917 5916 5916 5915 5915 5914 5913 5912 5911 5909 5908 5907 5906 5904 5903 5902 5901 5899 5898 5897 5896 5895 5895 5894 5893 5892 5892 5892 5891 5891 5891 5891 5891 5891 5891 5891 5892 5892 5892 5892 5893
5911 5912 5914 5914 5913 5914 5915 5915 5916 5915 5915 5915 5915 5914 5913 5912 5911 5910 5909 5908 5907 5905 5904 5903 5902 5900 5899 5898 5897 5896 5895 5895 5894 5893 5892 5892 5891 5891 5890 5890 5890 5890 5891 5891 5891 5891 5891 5891 5891
5906 5909 5911 5911 5911 5912 5913 5913 5914 5914 5914 5914 5914 5913 5913 5912 5911 5910 5909 5908 5907 5906 5905 5903 5902 5901 5900 5899 5898 5897 5896 5895 5894 5893 5892 5892 5891 5891 5890 5890 5890 5890 5890 5890 5890 5890 5890 5890 5890
5903 5905 5907 5907 5908 5908 5910 5911 5912 5912 5912 5912 5912 5912 5912 5911 5911 5910 5909 5908 5907 5906 5905 5904 5903 5901 5900 5899 5898 5897 5896 5895 5894 5893 5893 5892 5891 5891 5890 5890 5889 5889 5889 5889 5888 5888 5888 5888 5888
5899 5900 5901 5902 5904 5906 5907 5909 5909 5909 5909 5909 5909 5909 5909 5909 5909 5908 5907 5907 5906 5905 5904 5903 5902 5901 5900 5899 5897 5896 5896 5895 5894 5893 5892 5892 5891 5891 5890 5890 5889 5889 5888 5888 5887 5887 5886 5886 5886
5894 5895 5896 5898 5899 5901 5903 5904 5907 5906 5906 5907 5907 5907 5907 5907 5907 5906 5906 5905 5904 5904 5903 5902 5901 5900 5899 5898 5897 5896 5895 5894 5893 5892 5892 5891 5891 5890 5889 5889 5888 5888 5887 5887 5886 5885 5885 5884 5884
5888 5890 5891 5893 5895 5896 5898 5900 5902 5902 5903 5904 5904 5904 5904 5904 5904 5904 5903 5903 5902 5902 5901 5901 5900 5899 5898 5897 5896 5895 5894 5893 5892 5891 5891 5890 5889 5889 5888 5887 5887 5886 5886 5885 5884 5884 5883 5883 5882
5882 5885 5887 5888 5890 5891 5893 5893 5896 5897 5898 5899 5900 5900 5900 5900 5900 5901 5900 5900 5900 5899 5898 5898 5897 5897 5896 5895 5895 5893 5892 5891 5890 5889 5889 5888 5887 5887 5886 5886 5885 5884 5884 5883 5882 5882 5881 5881 5880
5876 5880 5882 5884 5886 5888 5886 5886 5890 5892 5892 5893 5895 5896 5896 5896 5896 5897 5897 5896 5896 5896 5896 5895 5895 5894 5893 5892 5892 5891 5890 5889 5888 5887 5887 5886 5885 5884 5884 5883 5883 5882 5882 5881 5880 5880 5879 5878 5878
5869 5872 5875 5877 5878 5880 5881 5881 5883 5885 5886 5888 5889 5890 5891 5891 5891 5892 5892 5892 5892 5892 5892 5892 5892 5891 5890 5889 5889 5888 5887 5887 5886 5885 5884 5882 5881 5881 5881 5880 5880 5879 5879 5878 5878 5877 5876 5876 5875
5862 5865 5867 5869 5870 5872 5874 5875 5877 5878 5879 5881 5882 5884 5884 5885 5886 5887 5887 5887 5887 5888 5888 5888 5888 5887 5886 5885 5885 5885 5884 5883 5882 5881 5880 5879 5878 5877 5877 5877 5877 5876 5876 5875 5875 5874 5874 5873 5872
5854 5856 5858 5860 5863 5865 5867 5871 5870 5871 5872 5874 5876 5877 5878 5879 5879 5880 5881 5881 5882 5882 5882 5882 5882 5882 5881 5881 5880 5880 5880 5879 5878 5877 5876 5875 5875 5874 5873 5873 5873 5872 5872 5871 5871 5870 5870 5869 5868
5845 5847 5850 5852 5853 5855 5857 5863 5863 5863 5864 5866 5868 5869 5871 5871 5872 5873 5874 5875 5875 5875 5876 5876 5876 5877 5876 5876 5875 5875 5874 5874 5873 5872 5872 5871 5870 5870 5869 5869 5868 5868 5868 5867 5866 5866 5865 5865 5864